Time,TemperatureF,DewpointF,PressureIn,WindDirection,WindDirectionDegrees,WindSpeedMPH,WindSpeedGustMPH,Humidity,HourlyPrecipIn,Conditions,Clouds,dailyrainin,SolarRadiationWatts/m^2,SoftwareType,DateUTC
2013-02-19 00:12:00,41.0,30.0,-100.00,NW,321,17.0,28.0,65,0.00,,,0.54,1.000000,,2013-02-19 06:12:00,
2013-02-19 00:22:00,41.0,30.0,-100.00,NW,321,17.0,28.0,65,0.00,,,0.54,1.000000,,2013-02-19 06:22:00,
2013-02-19 00:32:00,41.0,30.0,-100.00,NW,321,17.0,28.0,65,0.00,,,0.54,1.000000,,2013-02-19 06:32:00,
2013-02-19 00:42:00,41.0,30.0,-100.00,NW,321,17.0,28.0,65,0.00,,,0.54,1.000000,,2013-02-19 06:42:00,
2013-02-19 00:52:00,41.0,30.0,-100.00,NW,321,17.0,28.0,65,0.00,,,0.54,1.000000,,2013-02-19 06:52:00,
2013-02-19 01:22:00,38.0,27.0,-100.00,NW,305,11.0,25.0,65,0.00,,,0.54,1.000000,,2013-02-19 07:22:00,
2013-02-19 01:32:00,38.0,27.0,-100.00,NW,305,11.0,25.0,65,0.00,,,0.54,1.000000,,2013-02-19 07:32:00,
2013-02-19 01:42:00,38.0,27.0,-100.00,NW,305,11.0,25.0,65,0.00,,,0.54,1.000000,,2013-02-19 07:42:00,
2013-02-19 01:52:00,38.0,27.0,-100.00,NW,305,11.0,25.0,65,0.00,,,0.54,1.000000,,2013-02-19 07:52:00,
2013-02-19 02:21:00,36.0,23.0,-100.00,NW,307,11.0,22.0,60,0.00,,,0.54,1.000000,,2013-02-19 08:21:00,
2013-02-19 02:32:00,36.0,23.0,-100.00,NW,307,11.0,22.0,60,0.00,,,0.54,1.000000,,2013-02-19 08:32:00,
2013-02-19 02:42:00,36.0,23.0,-100.00,NW,307,11.0,22.0,60,0.00,,,0.54,1.000000,,2013-02-19 08:42:00,
2013-02-19 02:52:00,36.0,23.0,-100.00,NW,307,11.0,22.0,60,0.00,,,0.54,1.000000,,2013-02-19 08:52:00,
2013-02-19 03:11:00,35.0,23.0,-100.00,NW,311,10.0,22.0,62,0.00,,,0.54,1.000000,,2013-02-19 09:11:00,
2013-02-19 03:22:00,35.0,23.0,-100.00,NW,311,10.0,22.0,62,0.00,,,0.54,1.000000,,2013-02-19 09:22:00,
2013-02-19 03:32:00,35.0,23.0,-100.00,NW,311,10.0,22.0,62,0.00,,,0.54,1.000000,,2013-02-19 09:32:00,
2013-02-19 03:42:00,35.0,23.0,-100.00,NW,311,10.0,22.0,62,0.00,,,0.54,1.000000,,2013-02-19 09:42:00,
2013-02-19 03:52:00,35.0,23.0,-100.00,NW,311,10.0,22.0,62,0.00,,,0.54,1.000000,,2013-02-19 09:52:00,
2013-02-19 04:11:00,33.0,23.0,-100.00,NW,307,7.0,17.0,65,0.00,,,0.54,1.000000,,2013-02-19 10:11:00,
2013-02-19 04:22:00,33.0,23.0,-100.00,NW,307,7.0,17.0,65,0.00,,,0.54,1.000000,,2013-02-19 10:22:00,
2013-02-19 04:32:00,33.0,23.0,-100.00,NW,307,7.0,17.0,65,0.00,,,0.54,1.000000,,2013-02-19 10:32:00,
2013-02-19 04:42:00,33.0,23.0,-100.00,NW,307,7.0,17.0,65,0.00,,,0.54,1.000000,,2013-02-19 10:42:00,
2013-02-19 04:51:00,33.0,23.0,-100.00,NW,307,7.0,17.0,65,0.00,,,0.54,1.000000,,2013-02-19 10:51:00,
2013-02-19 05:22:00,32.0,19.0,-100.00,NW,306,7.0,20.0,58,0.00,,,0.54,1.000000,,2013-02-19 11:22:00,
2013-02-19 05:32:00,32.0,19.0,-100.00,NW,306,7.0,20.0,58,0.00,,,0.54,1.000000,,2013-02-19 11:32:00,
2013-02-19 05:42:00,32.0,19.0,-100.00,NW,306,7.0,20.0,58,0.00,,,0.54,1.000000,,2013-02-19 11:42:00,
2013-02-19 05:52:00,32.0,19.0,-100.00,NW,306,7.0,20.0,58,0.00,,,0.54,1.000000,,2013-02-19 11:52:00,
2013-02-19 06:22:00,31.0,17.0,-100.00,WNW,301,6.0,13.0,55,0.00,,,0.54,1.000000,,2013-02-19 12:22:00,
2013-02-19 06:32:00,31.0,17.0,-100.00,WNW,301,6.0,13.0,55,0.00,,,0.54,1.000000,,2013-02-19 12:32:00,
2013-02-19 06:42:00,31.0,17.0,-100.00,WNW,301,6.0,13.0,55,0.00,,,0.54,1.000000,,2013-02-19 12:42:00,
2013-02-19 06:52:00,31.0,17.0,-100.00,WNW,301,6.0,13.0,55,0.00,,,0.54,1.000000,,2013-02-19 12:52:00,
2013-02-19 07:22:00,29.0,16.0,-100.00,West,264,4.0,9.0,59,0.00,,,0.54,2.000000,,2013-02-19 13:22:00,
2013-02-19 07:32:00,29.0,16.0,-100.00,West,264,4.0,9.0,59,0.00,,,0.54,2.000000,,2013-02-19 13:32:00,
2013-02-19 07:42:00,29.0,16.0,-100.00,West,264,4.0,9.0,59,0.00,,,0.54,2.000000,,2013-02-19 13:42:00,
2013-02-19 07:52:00,29.0,16.0,-100.00,West,264,4.0,9.0,59,0.00,,,0.54,2.000000,,2013-02-19 13:52:00,
2013-02-19 08:11:00,32.0,17.0,-100.00,West,276,5.0,12.0,53,0.00,,,0.54,111.000000,,2013-02-19 14:11:00,
2013-02-19 08:21:00,32.0,17.0,-100.00,West,276,5.0,12.0,53,0.00,,,0.54,111.000000,,2013-02-19 14:21:00,
2013-02-19 08:32:00,32.0,17.0,-100.00,West,276,5.0,12.0,53,0.00,,,0.54,111.000000,,2013-02-19 14:32:00,
2013-02-19 08:42:00,32.0,17.0,-100.00,West,276,5.0,12.0,53,0.00,,,0.54,111.000000,,2013-02-19 14:42:00,
2013-02-19 08:52:00,32.0,17.0,-100.00,West,276,5.0,12.0,53,0.00,,,0.54,111.000000,,2013-02-19 14:52:00,
2013-02-19 09:11:00,35.0,16.0,-100.00,WNW,303,7.0,15.0,46,0.00,,,0.54,343.000000,,2013-02-19 15:11:00,
2013-02-19 09:21:00,35.0,16.0,-100.00,WNW,303,7.0,15.0,46,0.00,,,0.54,343.000000,,2013-02-19 15:21:00,
2013-02-19 09:32:00,35.0,16.0,-100.00,WNW,303,7.0,15.0,46,0.00,,,0.54,343.000000,,2013-02-19 15:32:00,
2013-02-19 09:42:00,35.0,16.0,-100.00,WNW,303,7.0,15.0,46,0.00,,,0.54,343.000000,,2013-02-19 15:42:00,
2013-02-19 09:52:00,35.0,16.0,-100.00,WNW,303,7.0,15.0,46,0.00,,,0.54,343.000000,,2013-02-19 15:52:00,
2013-02-19 10:11:00,38.0,17.0,-100.00,WNW,302,10.0,21.0,42,0.00,,,0.54,548.000000,,2013-02-19 16:11:00,
2013-02-19 10:22:00,38.0,17.0,-100.00,WNW,302,10.0,21.0,42,0.00,,,0.54,548.000000,,2013-02-19 16:22:00,
2013-02-19 10:32:00,38.0,17.0,-100.00,WNW,302,10.0,21.0,42,0.00,,,0.54,548.000000,,2013-02-19 16:32:00,
2013-02-19 10:41:00,38.0,17.0,-100.00,WNW,302,10.0,21.0,42,0.00,,,0.54,548.000000,,2013-02-19 16:41:00,
2013-02-19 10:51:00,38.0,17.0,-100.00,WNW,302,10.0,21.0,42,0.00,,,0.54,548.000000,,2013-02-19 16:51:00,
2013-02-19 11:11:00,40.0,16.0,-100.00,NW,319,12.0,22.0,38,0.00,,,0.54,706.000000,,2013-02-19 17:11:00,
2013-02-19 11:21:00,40.0,16.0,-100.00,NW,319,12.0,22.0,38,0.00,,,0.54,706.000000,,2013-02-19 17:21:00,
2013-02-19 11:32:00,40.0,16.0,-100.00,NW,319,12.0,22.0,38,0.00,,,0.54,706.000000,,2013-02-19 17:32:00,
2013-02-19 11:42:00,40.0,16.0,-100.00,NW,319,12.0,22.0,38,0.00,,,0.54,706.000000,,2013-02-19 17:42:00,
2013-02-19 11:52:00,40.0,16.0,-100.00,NW,319,12.0,22.0,38,0.00,,,0.54,706.000000,,2013-02-19 17:52:00,
2013-02-19 12:21:00,42.0,14.0,-100.00,NW,325,13.0,26.0,31,0.00,,,0.52,802.000000,,2013-02-19 18:21:00,
2013-02-19 12:32:00,42.0,14.0,-100.00,NW,325,13.0,26.0,31,0.00,,,0.52,802.000000,,2013-02-19 18:32:00,
2013-02-19 12:42:00,42.0,14.0,-100.00,NW,325,13.0,26.0,31,0.00,,,0.52,802.000000,,2013-02-19 18:42:00,
2013-02-19 12:51:00,42.0,14.0,-100.00,NW,325,13.0,26.0,31,0.00,,,0.52,802.000000,,2013-02-19 18:51:00,
2013-02-19 13:21:00,44.0,10.0,-100.00,NW,310,11.0,23.0,24,0.00,,,0.52,832.000000,,2013-02-19 19:21:00,
2013-02-19 13:32:00,44.0,10.0,-100.00,NW,310,11.0,23.0,24,0.00,,,0.52,832.000000,,2013-02-19 19:32:00,
2013-02-19 13:42:00,44.0,10.0,-100.00,NW,310,11.0,23.0,24,0.00,,,0.52,832.000000,,2013-02-19 19:42:00,
2013-02-19 13:51:00,44.0,10.0,-100.00,NW,310,11.0,23.0,24,0.00,,,0.52,832.000000,,2013-02-19 19:51:00,
2013-02-19 14:21:00,46.0,9.0,-100.00,NW,304,12.0,24.0,22,0.00,,,0.51,787.000000,,2013-02-19 20:21:00,
2013-02-19 14:32:00,46.0,9.0,-100.00,NW,304,12.0,24.0,22,0.00,,,0.51,787.000000,,2013-02-19 20:32:00,
2013-02-19 14:42:00,46.0,9.0,-100.00,NW,304,12.0,24.0,22,0.00,,,0.51,787.000000,,2013-02-19 20:42:00,
2013-02-19 14:52:00,46.0,9.0,-100.00,NW,304,12.0,24.0,22,0.00,,,0.51,787.000000,,2013-02-19 20:52:00,
2013-02-19 15:11:00,47.0,9.0,-100.00,NW,310,14.0,23.0,21,0.00,,,0.51,674.000000,,2013-02-19 21:11:00,
2013-02-19 15:21:00,47.0,9.0,-100.00,NW,310,14.0,23.0,21,0.00,,,0.51,674.000000,,2013-02-19 21:21:00,
2013-02-19 15:32:00,47.0,9.0,-100.00,NW,310,14.0,23.0,21,0.00,,,0.51,674.000000,,2013-02-19 21:32:00,
2013-02-19 15:42:00,47.0,9.0,-100.00,NW,310,14.0,23.0,21,0.00,,,0.51,674.000000,,2013-02-19 21:42:00,
2013-02-19 15:51:00,47.0,9.0,-100.00,NW,310,14.0,23.0,21,0.00,,,0.51,674.000000,,2013-02-19 21:51:00,
2013-02-19 16:21:00,47.0,8.0,-100.00,NW,315,13.0,25.0,20,0.00,,,0.48,503.000000,,2013-02-19 22:21:00,
2013-02-19 16:32:00,47.0,8.0,-100.00,NW,315,13.0,25.0,20,0.00,,,0.48,503.000000,,2013-02-19 22:32:00,
2013-02-19 16:41:00,47.0,8.0,-100.00,NW,315,13.0,25.0,20,0.00,,,0.48,503.000000,,2013-02-19 22:41:00,
2013-02-19 16:52:00,47.0,8.0,-100.00,NW,315,13.0,25.0,20,0.00,,,0.48,503.000000,,2013-02-19 22:52:00,
2013-02-19 17:11:00,46.0,6.0,-100.00,WNW,296,8.0,24.0,19,0.00,,,0.42,279.000000,,2013-02-19 23:11:00,
2013-02-19 17:21:00,46.0,6.0,-100.00,WNW,296,8.0,24.0,19,0.00,,,0.42,279.000000,,2013-02-19 23:21:00,
2013-02-19 17:32:00,46.0,6.0,-100.00,WNW,296,8.0,24.0,19,0.00,,,0.42,279.000000,,2013-02-19 23:32:00,
2013-02-19 17:42:00,46.0,6.0,-100.00,WNW,296,8.0,24.0,19,0.00,,,0.42,279.000000,,2013-02-19 23:42:00,
2013-02-19 17:52:00,46.0,6.0,-100.00,WNW,296,8.0,24.0,19,0.00,,,0.42,279.000000,,2013-02-19 23:52:00,
2013-02-19 18:11:00,42.0,7.0,-100.00,NW,316,7.0,18.0,23,0.00,,,0.33,62.000000,,2013-02-20 00:11:00,
2013-02-19 18:21:00,42.0,7.0,-100.00,NW,316,7.0,18.0,23,0.00,,,0.33,62.000000,,2013-02-20 00:21:00,
2013-02-19 18:32:00,42.0,7.0,-100.00,NW,316,7.0,18.0,23,0.00,,,0.33,62.000000,,2013-02-20 00:32:00,
2013-02-19 18:42:00,42.0,7.0,-100.00,NW,316,7.0,18.0,23,0.00,,,0.33,62.000000,,2013-02-20 00:42:00,
2013-02-19 18:51:00,42.0,7.0,-100.00,NW,316,7.0,18.0,23,0.00,,,0.33,62.000000,,2013-02-20 00:51:00,
2013-02-19 19:11:00,40.0,7.0,-100.00,WNW,296,5.0,9.0,25,0.00,,,0.01,1.000000,,2013-02-20 01:11:00,
2013-02-19 19:21:00,40.0,7.0,-100.00,WNW,296,5.0,9.0,25,0.00,,,0.01,1.000000,,2013-02-20 01:21:00,
2013-02-19 19:32:00,40.0,7.0,-100.00,WNW,296,5.0,9.0,25,0.00,,,0.01,1.000000,,2013-02-20 01:32:00,
2013-02-19 19:42:00,40.0,7.0,-100.00,WNW,296,5.0,9.0,25,0.00,,,0.01,1.000000,,2013-02-20 01:42:00,
2013-02-19 19:51:00,40.0,7.0,-100.00,WNW,296,5.0,9.0,25,0.00,,,0.01,1.000000,,2013-02-20 01:51:00,
2013-02-19 20:21:00,38.0,5.0,-100.00,WNW,287,3.0,8.0,25,0.00,,,0.01,1.000000,,2013-02-20 02:21:00,
2013-02-19 20:32:00,38.0,5.0,-100.00,WNW,287,3.0,8.0,25,0.00,,,0.01,1.000000,,2013-02-20 02:32:00,
2013-02-19 20:42:00,38.0,5.0,-100.00,WNW,287,3.0,8.0,25,0.00,,,0.01,1.000000,,2013-02-20 02:42:00,
2013-02-19 20:52:00,38.0,5.0,-100.00,WNW,287,3.0,8.0,25,0.00,,,0.01,1.000000,,2013-02-20 02:52:00,
2013-02-19 21:22:00,36.0,6.0,-100.00,NW,309,4.0,9.0,28,0.00,,,0.00,1.000000,,2013-02-20 03:22:00,
2013-02-19 21:32:00,36.0,6.0,-100.00,NW,309,4.0,9.0,28,0.00,,,0.00,1.000000,,2013-02-20 03:32:00,
2013-02-19 21:42:00,36.0,6.0,-100.00,NW,309,4.0,9.0,28,0.00,,,0.00,1.000000,,2013-02-20 03:42:00,
2013-02-19 21:51:00,36.0,6.0,-100.00,NW,309,4.0,9.0,28,0.00,,,0.00,1.000000,,2013-02-20 03:51:00,
2013-02-19 22:11:00,32.0,10.0,-100.00,NW,321,3.0,7.0,39,0.00,,,0.00,1.000000,,2013-02-20 04:11:00,
2013-02-19 22:21:00,32.0,10.0,-100.00,NW,321,3.0,7.0,39,0.00,,,0.00,1.000000,,2013-02-20 04:21:00,
2013-02-19 22:31:00,32.0,10.0,-100.00,NW,321,3.0,7.0,39,0.00,,,0.00,1.000000,,2013-02-20 04:31:00,
2013-02-19 22:42:00,32.0,10.0,-100.00,NW,321,3.0,7.0,39,0.00,,,0.00,1.000000,,2013-02-20 04:42:00,
2013-02-19 22:52:00,32.0,10.0,-100.00,NW,321,3.0,7.0,39,0.00,,,0.00,1.000000,,2013-02-20 04:52:00,
2013-02-19 23:12:00,30.0,10.0,-100.00,NNW,344,4.0,8.0,42,0.00,,,0.00,1.000000,,2013-02-20 05:12:00,
2013-02-19 23:22:00,30.0,10.0,-100.00,NNW,344,4.0,8.0,42,0.00,,,0.00,1.000000,,2013-02-20 05:22:00,
2013-02-19 23:32:00,30.0,10.0,-100.00,NNW,344,4.0,8.0,42,0.00,,,0.00,1.000000,,2013-02-20 05:32:00,
2013-02-19 23:43:00,30.0,10.0,-100.00,NNW,344,4.0,8.0,42,0.00,,,0.00,1.000000,,2013-02-20 05:43:00,
2013-02-19 23:52:00,30.0,10.0,-100.00,NNW,344,4.0,8.0,42,0.00,,,0.00,1.000000,,2013-02-20 05:52:00,